Time,TemperatureF,DewpointF,PressureIn,WindDirection,WindDirectionDegrees,WindSpeedMPH,WindSpeedGustMPH,Humidity,HourlyPrecipIn,Conditions,Clouds,dailyrainin,SoftwareType,DateUTC
2013-10-11 00:02:00,59.4,59.1,29.79,North,0,2.7,-999.0,99,-99.99,,,0.00,Acu-Link.com,2013-10-11 04:02:00,
2013-10-11 00:17:00,59.2,58.9,29.78,North,0,1.7,-999.0,99,-99.99,,,0.00,Acu-Link.com,2013-10-11 04:17:00,
2013-10-11 00:32:00,59.2,58.9,29.77,North,0,5.3,-999.0,99,-99.99,,,0.00,Acu-Link.com,2013-10-11 04:32:00,
2013-10-11 00:47:00,59.2,58.9,29.77,North,0,4.2,-999.0,99,-99.99,,,0.00,Acu-Link.com,2013-10-11 04:47:00,
2013-10-11 01:02:00,59.2,58.9,29.76,North,0,3.7,-999.0,99,-99.99,,,0.00,Acu-Link.com,2013-10-11 05:02:00,
2013-10-11 01:19:00,59.2,58.9,29.77,North,0,2.2,-999.0,99,-99.99,,,0.00,Acu-Link.com,2013-10-11 05:19:00,
2013-10-11 01:34:00,59.2,58.9,29.76,North,0,2.7,-999.0,99,-99.99,,,0.00,Acu-Link.com,2013-10-11 05:34:00,
2013-10-11 01:50:00,59.2,58.9,29.77,WNW,292,5.3,-999.0,99,-99.99,,,0.00,Acu-Link.com,2013-10-11 05:50:00,
2013-10-11 02:05:00,59.2,58.9,29.77,NNE,22,4.7,-999.0,99,-99.99,,,0.00,Acu-Link.com,2013-10-11 06:05:00,
2013-10-11 02:21:00,59.4,59.1,29.77,North,0,3.7,-999.0,99,-99.99,,,0.00,Acu-Link.com,2013-10-11 06:21:00,
2013-10-11 02:36:00,59.4,59.1,29.77,North,0,1.7,-999.0,99,-99.99,,,0.00,Acu-Link.com,2013-10-11 06:36:00,
2013-10-11 02:52:00,59.5,59.2,29.77,North,0,2.7,-999.0,99,-99.99,,,0.00,Acu-Link.com,2013-10-11 06:52:00,
2013-10-11 03:07:00,59.5,59.2,29.76,North,0,2.2,-999.0,99,-99.99,,,0.00,Acu-Link.com,2013-10-11 07:07:00,
2013-10-11 03:22:00,59.5,59.2,29.76,North,0,2.2,-999.0,99,-99.99,,,0.00,Acu-Link.com,2013-10-11 07:22:00,
2013-10-11 03:39:00,59.5,59.2,29.76,West,270,2.7,-999.0,99,-99.99,,,0.00,Acu-Link.com,2013-10-11 07:39:00,
2013-10-11 03:54:00,59.4,59.1,29.76,North,0,2.2,-999.0,99,-99.99,,,0.00,Acu-Link.com,2013-10-11 07:54:00,
2013-10-11 04:09:00,59.4,59.1,29.75,North,0,3.2,-999.0,99,-99.99,,,0.00,Acu-Link.com,2013-10-11 08:09:00,
2013-10-11 04:24:00,59.4,59.1,29.76,North,0,1.1,-999.0,99,-99.99,,,0.00,Acu-Link.com,2013-10-11 08:24:00,
2013-10-11 04:40:00,59.2,58.9,29.76,North,0,2.7,-999.0,99,-99.99,,,0.00,Acu-Link.com,2013-10-11 08:40:00,
2013-10-11 04:55:00,59.2,58.9,29.76,North,0,2.2,-999.0,99,-99.99,,,0.00,Acu-Link.com,2013-10-11 08:55:00,
2013-10-11 05:10:00,59.2,58.9,29.76,North,0,3.2,-999.0,99,-99.99,,,0.00,Acu-Link.com,2013-10-11 09:10:00,
2013-10-11 05:26:00,59.2,58.9,29.76,North,0,2.7,-999.0,99,-99.99,,,0.00,Acu-Link.com,2013-10-11 09:26:00,
2013-10-11 05:41:00,59.2,58.9,29.76,North,0,2.7,-999.0,99,-99.99,,,0.00,Acu-Link.com,2013-10-11 09:41:00,
2013-10-11 05:56:00,59.0,58.7,29.78,North,0,3.2,-999.0,99,-99.99,,,0.00,Acu-Link.com,2013-10-11 09:56:00,
2013-10-11 06:11:00,58.8,58.5,29.78,North,0,3.2,-999.0,99,-99.99,,,0.01,Acu-Link.com,2013-10-11 10:11:00,
2013-10-11 06:26:00,58.8,58.5,29.78,North,0,3.2,-999.0,99,-99.99,,,0.01,Acu-Link.com,2013-10-11 10:26:00,
2013-10-11 06:41:00,58.8,58.5,29.79,North,0,1.7,-999.0,99,-99.99,,,0.01,Acu-Link.com,2013-10-11 10:41:00,
2013-10-11 06:57:00,58.8,58.5,29.79,North,0,1.7,-999.0,99,-99.99,,,0.01,Acu-Link.com,2013-10-11 10:57:00,
2013-10-11 07:12:00,58.8,58.5,29.79,North,0,1.7,-999.0,99,-99.99,,,0.01,Acu-Link.com,2013-10-11 11:12:00,
2013-10-11 07:27:00,58.8,58.5,29.79,North,0,0.0,-999.0,99,-99.99,,,0.01,Acu-Link.com,2013-10-11 11:27:00,
2013-10-11 07:42:00,58.8,58.5,29.80,North,0,2.2,-999.0,99,-99.99,,,0.01,Acu-Link.com,2013-10-11 11:42:00,
2013-10-11 07:57:00,58.8,58.5,29.80,North,0,2.2,-999.0,99,-99.99,,,0.01,Acu-Link.com,2013-10-11 11:57:00,
2013-10-11 08:13:00,58.8,58.5,29.80,North,0,2.7,-999.0,99,-99.99,,,0.01,Acu-Link.com,2013-10-11 12:13:00,
2013-10-11 08:28:00,59.2,58.9,29.80,North,0,1.1,-999.0,99,-99.99,,,0.01,Acu-Link.com,2013-10-11 12:28:00,
2013-10-11 08:43:00,59.4,59.1,29.81,North,0,1.7,-999.0,99,-99.99,,,0.01,Acu-Link.com,2013-10-11 12:43:00,
2013-10-11 08:58:00,59.7,59.4,29.81,WSW,247,1.7,-999.0,99,-99.99,,,0.01,Acu-Link.com,2013-10-11 12:58:00,
2013-10-11 09:13:00,60.3,60.0,29.80,North,0,1.1,-999.0,99,-99.99,,,0.01,Acu-Link.com,2013-10-11 13:13:00,
2013-10-11 09:29:00,60.8,60.5,29.81,North,0,2.7,-999.0,99,-99.99,,,0.01,Acu-Link.com,2013-10-11 13:29:00,
2013-10-11 09:44:00,61.3,60.4,29.81,North,0,1.7,-999.0,97,-99.99,,,0.01,Acu-Link.com,2013-10-11 13:44:00,
2013-10-11 09:59:00,61.5,60.3,29.81,North,0,3.7,-999.0,96,-99.99,,,0.01,Acu-Link.com,2013-10-11 13:59:00,
2013-10-11 10:14:00,61.5,60.3,29.81,North,0,2.7,-999.0,96,-99.99,,,0.01,Acu-Link.com,2013-10-11 14:14:00,
2013-10-11 10:29:00,61.9,60.7,29.82,NW,315,2.7,-999.0,96,-99.99,,,0.01,Acu-Link.com,2013-10-11 14:29:00,
2013-10-11 10:45:00,62.2,60.7,29.82,North,0,1.7,-999.0,95,-99.99,,,0.01,Acu-Link.com,2013-10-11 14:45:00,
2013-10-11 11:00:00,62.4,60.3,29.82,North,0,1.7,-999.0,93,-99.99,,,0.01,Acu-Link.com,2013-10-11 15:00:00,
2013-10-11 11:15:00,62.6,60.5,29.82,North,0,6.8,-999.0,93,-99.99,,,0.01,Acu-Link.com,2013-10-11 15:15:00,
2013-10-11 11:30:00,62.6,60.5,29.82,North,0,2.7,-999.0,93,-99.99,,,0.01,Acu-Link.com,2013-10-11 15:30:00,
2013-10-11 11:46:00,62.8,60.7,29.82,North,0,4.2,-999.0,93,-99.99,,,0.01,Acu-Link.com,2013-10-11 15:46:00,
2013-10-11 12:01:00,62.6,61.4,29.82,North,0,2.7,-999.0,96,-99.99,,,0.01,Acu-Link.com,2013-10-11 16:01:00,
2013-10-11 12:16:00,62.2,61.3,29.82,North,0,4.2,-999.0,97,-99.99,,,0.01,Acu-Link.com,2013-10-11 16:16:00,
2013-10-11 12:31:00,63.0,61.5,29.82,NNE,22,1.7,-999.0,95,-99.99,,,0.01,Acu-Link.com,2013-10-11 16:31:00,
2013-10-11 12:46:00,64.2,61.8,29.81,NNW,337,4.2,-999.0,92,-99.99,,,0.01,Acu-Link.com,2013-10-11 16:46:00,
2013-10-11 13:02:00,64.4,62.0,29.81,East,90,2.7,-999.0,92,-99.99,,,0.01,Acu-Link.com,2013-10-11 17:02:00,
2013-10-11 13:17:00,63.9,61.5,29.80,North,0,2.7,-999.0,92,-99.99,,,0.01,Acu-Link.com,2013-10-11 17:17:00,
2013-10-11 13:32:00,64.6,61.6,29.80,NW,315,2.7,-999.0,90,-99.99,,,0.01,Acu-Link.com,2013-10-11 17:32:00,
2013-10-11 13:47:00,64.9,62.2,29.79,North,0,1.7,-999.0,91,-99.99,,,0.01,Acu-Link.com,2013-10-11 17:47:00,
2013-10-11 14:02:00,64.9,61.9,29.79,WSW,247,4.7,-999.0,90,-99.99,,,0.01,Acu-Link.com,2013-10-11 18:02:00,
2013-10-11 14:18:00,65.1,62.1,29.79,North,0,2.2,-999.0,90,-99.99,,,0.01,Acu-Link.com,2013-10-11 18:18:00,
2013-10-11 14:33:00,65.5,62.2,29.78,NW,315,3.7,-999.0,89,-99.99,,,0.01,Acu-Link.com,2013-10-11 18:33:00,
2013-10-11 14:48:00,65.1,62.1,29.78,West,270,4.2,-999.0,90,-99.99,,,0.01,Acu-Link.com,2013-10-11 18:48:00,
2013-10-11 15:03:00,64.9,61.9,29.78,WSW,247,2.7,-999.0,90,-99.99,,,0.01,Acu-Link.com,2013-10-11 19:03:00,
2013-10-11 15:18:00,64.6,62.2,29.78,WNW,292,4.2,-999.0,92,-99.99,,,0.01,Acu-Link.com,2013-10-11 19:18:00,
2013-10-11 15:34:00,65.8,62.5,29.77,ENE,67,4.7,-999.0,89,-99.99,,,0.01,Acu-Link.com,2013-10-11 19:34:00,
2013-10-11 15:49:00,65.8,62.5,29.78,WNW,292,6.8,-999.0,89,-99.99,,,0.01,Acu-Link.com,2013-10-11 19:49:00,
2013-10-11 16:04:00,65.8,62.5,29.78,NW,315,2.7,-999.0,89,-99.99,,,0.01,Acu-Link.com,2013-10-11 20:04:00,
2013-10-11 16:19:00,66.2,62.9,29.78,NNE,22,3.7,-999.0,89,-99.99,,,0.01,Acu-Link.com,2013-10-11 20:19:00,
2013-10-11 16:35:00,65.8,62.8,29.77,North,0,1.7,-999.0,90,-99.99,,,0.01,Acu-Link.com,2013-10-11 20:35:00,
2013-10-11 16:50:00,66.2,62.9,29.78,NE,45,2.7,-999.0,89,-99.99,,,0.01,Acu-Link.com,2013-10-11 20:50:00,
2013-10-11 17:05:00,65.7,62.7,29.79,North,0,1.7,-999.0,90,-99.99,,,0.01,Acu-Link.com,2013-10-11 21:05:00,
2013-10-11 17:20:00,65.3,62.6,29.79,North,0,2.7,-999.0,91,-99.99,,,0.01,Acu-Link.com,2013-10-11 21:20:00,
2013-10-11 17:35:00,65.1,62.4,29.78,NNW,337,2.7,-999.0,91,-99.99,,,0.01,Acu-Link.com,2013-10-11 21:35:00,
2013-10-11 17:51:00,65.3,62.9,29.78,North,0,2.7,-999.0,92,-99.99,,,0.01,Acu-Link.com,2013-10-11 21:51:00,
2013-10-11 18:06:00,65.1,62.7,29.78,North,0,2.2,-999.0,92,-99.99,,,0.01,Acu-Link.com,2013-10-11 22:06:00,
2013-10-11 18:21:00,65.1,62.7,29.79,North,0,1.7,-999.0,92,-99.99,,,0.01,Acu-Link.com,2013-10-11 22:21:00,
2013-10-11 18:36:00,64.8,62.7,29.79,North,0,0.0,-999.0,93,-99.99,,,0.01,Acu-Link.com,2013-10-11 22:36:00,
2013-10-11 18:51:00,64.4,62.9,29.79,North,0,0.0,-999.0,95,-99.99,,,0.01,Acu-Link.com,2013-10-11 22:51:00,
2013-10-11 19:07:00,63.7,62.8,29.79,North,0,0.0,-999.0,97,-99.99,,,0.01,Acu-Link.com,2013-10-11 23:07:00,
2013-10-11 19:22:00,63.3,62.4,29.80,North,0,0.0,-999.0,97,-99.99,,,0.01,Acu-Link.com,2013-10-11 23:22:00,
2013-10-11 19:37:00,63.0,62.4,29.80,North,0,0.0,-999.0,98,-99.99,,,0.01,Acu-Link.com,2013-10-11 23:37:00,
2013-10-11 19:52:00,63.0,62.7,29.80,North,0,0.0,-999.0,99,-99.99,,,0.01,Acu-Link.com,2013-10-11 23:52:00,
2013-10-11 20:07:00,62.8,62.5,29.81,North,0,0.0,-999.0,99,-99.99,,,0.01,Acu-Link.com,2013-10-12 00:07:00,
2013-10-11 20:23:00,62.6,62.3,29.81,North,0,0.0,-999.0,99,-99.99,,,0.01,Acu-Link.com,2013-10-12 00:23:00,
2013-10-11 20:38:00,62.6,62.3,29.81,North,0,0.0,-999.0,99,-99.99,,,0.01,Acu-Link.com,2013-10-12 00:38:00,
2013-10-11 20:53:00,63.1,62.5,29.81,North,0,1.7,-999.0,98,-99.99,,,0.01,Acu-Link.com,2013-10-12 00:53:00,
2013-10-11 21:08:00,63.1,62.5,29.81,North,0,2.7,-999.0,98,-99.99,,,0.01,Acu-Link.com,2013-10-12 01:08:00,
2013-10-11 21:23:00,63.1,62.2,29.82,NW,315,4.2,-999.0,97,-99.99,,,0.01,Acu-Link.com,2013-10-12 01:23:00,
2013-10-11 21:39:00,62.8,61.9,29.82,North,0,0.0,-999.0,97,-99.99,,,0.01,Acu-Link.com,2013-10-12 01:39:00,
2013-10-11 21:54:00,62.6,61.7,29.82,North,0,0.0,-999.0,97,-99.99,,,0.01,Acu-Link.com,2013-10-12 01:54:00,
2013-10-11 22:09:00,62.1,61.5,29.82,WNW,292,0.0,-999.0,98,-99.99,,,0.01,Acu-Link.com,2013-10-12 02:09:00,
2013-10-11 22:24:00,61.5,61.2,29.82,North,0,0.0,-999.0,99,-99.99,,,0.01,Acu-Link.com,2013-10-12 02:24:00,
2013-10-11 22:40:00,61.5,61.2,29.82,North,0,0.0,-999.0,99,-99.99,,,0.01,Acu-Link.com,2013-10-12 02:40:00,
2013-10-11 22:55:00,61.2,60.9,29.82,North,0,0.0,-999.0,99,-99.99,,,0.01,Acu-Link.com,2013-10-12 02:55:00,
2013-10-11 23:10:00,61.2,60.9,29.82,North,0,0.0,-999.0,99,-99.99,,,0.01,Acu-Link.com,2013-10-12 03:10:00,
2013-10-11 23:25:00,61.2,60.9,29.82,North,0,0.0,-999.0,99,-99.99,,,0.01,Acu-Link.com,2013-10-12 03:25:00,
2013-10-11 23:40:00,61.2,60.9,29.82,North,0,0.0,-999.0,99,-99.99,,,0.01,Acu-Link.com,2013-10-12 03:40:00,
2013-10-11 23:56:00,61.3,61.0,29.82,North,0,0.0,-999.0,99,-99.99,,,0.01,Acu-Link.com,2013-10-12 03:56:00,